period_start,C,m1,H,J0,J1,J2,J3,J4,J5,JA,JB,JC,JD,JJ,JK,JN,#
2014-12-02 00:02:13,0.07,1.40,0.00,20.76,25.37,28.50,4.94,26.06,1045.16,2039.97,2897.19,2947.01,3170.01,349.89,360.24,13.65,0000 0000 0000 0000 000000
2014-12-02 00:07:14,0.10,1.40,0.00,20.74,25.37,28.55,4.90,26.25,1045.00,2039.96,2896.18,2946.39,3169.27,349.65,359.68,13.68,0000 0000 0000 0000 000000
2014-12-02 00:12:15,0.05,1.41,0.00,20.73,25.37,28.54,5.01,26.25,1045.11,2039.97,2895.23,2945.96,3168.73,350.26,360.34,13.71,0000 0000 0000 0000 000000
2014-12-02 00:17:17,0.09,1.41,0.00,20.75,25.37,28.54,4.94,26.09,1045.26,2039.98,2894.45,2945.27,3168.03,349.78,359.73,13.74,0000 0000 0000 0000 000000
2014-12-02 00:22:18,0.07,1.41,0.00,20.75,25.37,28.53,5.00,26.13,1045.20,2039.98,2893.42,2944.86,3167.29,350.15,360.26,13.77,0000 0000 0000 0000 000000
2014-12-02 00:27:20,0.09,1.41,0.00,20.75,25.36,28.52,4.94,26.03,1045.09,2039.99,2892.33,2944.06,3166.65,350.14,360.36,13.80,0000 0000 0000 0000 000000
2014-12-02 00:32:21,0.07,1.42,0.00,20.73,25.35,28.52,4.95,26.17,1045.00,2039.98,2891.37,2943.65,3165.93,349.94,360.12,13.83,0000 0000 0000 0000 000000
2014-12-02 00:37:22,0.08,1.42,0.00,20.75,25.35,28.49,4.97,26.13,1044.97,2039.98,2890.33,2942.98,3165.09,350.30,360.52,13.85,0000 0000 0000 0000 000000
2014-12-02 00:42:23,0.10,1.42,0.00,20.73,25.35,28.51,5.00,26.21,1044.97,2039.98,2889.21,2942.17,3164.41,350.20,360.37,13.88,0000 0000 0000 0000 000000
2014-12-02 00:47:25,0.05,1.42,0.00,20.74,25.35,28.51,4.95,26.28,1044.99,2039.98,2888.48,2941.95,3163.90,349.41,359.83,13.91,0000 0000 0000 0000 000000
2014-12-02 00:52:26,0.09,1.43,0.00,20.73,25.35,28.50,4.93,26.01,1045.11,2039.99,2887.52,2941.17,3163.09,349.93,360.33,13.94,0000 0000 0000 0000 000000
2014-12-02 00:57:28,0.09,1.43,0.00,20.71,25.35,28.50,5.00,26.07,1045.34,2039.98,2886.49,2940.71,3162.46,349.84,360.08,13.97,0000 0000 0000 0000 000000
2014-12-02 01:02:29,0.06,1.43,0.00,20.71,25.34,28.51,4.99,26.19,1045.26,2039.99,2885.57,2940.03,3161.83,350.36,360.63,14.00,0000 0000 0000 0000 000000
2014-12-02 01:07:30,0.09,1.43,0.00,20.71,25.34,28.50,4.96,26.15,1045.08,2039.98,2884.62,2939.47,3161.04,349.92,360.06,14.03,0000 0000 0000 0000 000000
2014-12-02 01:12:31,0.07,1.44,0.00,20.71,25.33,28.49,5.04,26.12,1045.01,2039.99,2883.59,2938.93,3160.27,350.61,360.75,14.06,0000 0000 0000 0000 000000
2014-12-02 01:17:32,0.08,1.44,0.00,20.70,25.32,28.48,4.93,26.16,1045.00,2039.99,2882.65,2938.11,3159.81,349.76,359.99,14.09,0000 0000 0000 0000 000000
2014-12-02 01:22:34,0.08,1.44,0.00,20.69,25.32,28.47,5.00,26.14,1045.03,2039.99,2881.62,2937.68,3159.04,350.33,360.56,14.12,0000 0000 0000 0000 000000
2014-12-02 01:27:35,0.08,1.44,0.00,20.68,25.32,28.51,5.01,26.17,1045.08,2039.97,2880.64,2937.00,3158.20,350.05,360.19,14.15,0000 0000 0000 0000 000000
2014-12-02 01:32:36,0.11,1.45,0.00,20.68,25.32,28.47,4.95,26.13,1045.29,2039.99,2879.41,2936.14,3157.37,349.90,360.34,14.18,0000 0000 0000 0000 000000
2014-12-02 01:37:38,0.13,1.45,0.00,20.68,25.32,28.47,4.94,26.25,1045.14,2039.96,2877.97,2935.25,3156.30,350.21,360.35,14.21,0000 0000 0000 0000 000000
2014-12-02 01:42:39,0.12,1.45,0.00,20.65,25.32,28.46,4.99,26.29,1045.02,2039.98,2876.62,2934.25,3155.28,350.38,360.65,14.24,0000 0000 0000 0000 000000
2014-12-02 01:47:40,0.12,1.46,0.00,20.66,25.32,28.43,4.99,26.24,1044.95,2039.99,2875.13,2933.43,3154.25,350.00,360.42,14.26,0000 0000 0000 0000 000000
2014-12-02 01:52:42,0.13,1.46,0.00,20.65,25.31,28.44,4.96,26.18,1044.94,2039.99,2873.58,2932.43,3153.08,350.68,360.74,14.29,0000 0000 0000 0000 000000
2014-12-02 01:57:43,0.13,1.46,0.00,20.64,25.30,28.46,4.94,26.09,1044.94,2039.99,2871.96,2931.45,3151.95,349.94,360.02,14.32,0000 0000 0000 0000 000000
2014-12-02 02:02:44,0.13,1.47,0.00,20.64,25.30,28.44,4.99,26.17,1044.94,2039.99,2870.45,2930.42,3150.84,350.32,360.51,14.35,0000 0000 0000 0000 000000
2014-12-02 02:07:46,0.14,1.47,0.00,20.64,25.30,28.48,4.95,26.11,1044.95,2039.99,2868.80,2929.47,3149.71,349.92,360.19,14.38,0000 0000 0000 0000 000000
2014-12-02 02:12:47,0.12,1.48,0.00,20.63,25.30,28.44,4.96,26.15,1044.94,2039.99,2867.42,2928.47,3148.67,349.53,360.08,14.41,0000 0000 0000 0000 000000
2014-12-02 02:17:48,0.11,1.48,0.00,20.63,25.30,28.42,4.95,26.16,1044.93,2039.99,2866.02,2927.69,3147.67,349.74,360.12,14.44,0000 0000 0000 0000 000000
2014-12-02 02:22:49,0.09,1.48,0.00,20.62,25.30,28.43,4.87,26.13,1044.94,2039.99,2864.72,2926.88,3146.80,349.56,359.96,14.47,0000 0000 0000 0000 000000
2014-12-02 02:27:51,0.10,1.49,0.00,20.60,25.28,28.40,4.94,26.39,1044.94,2039.99,2863.58,2926.05,3145.93,349.71,359.85,14.50,0000 0000 0000 0000 000000
2014-12-02 02:32:52,0.11,1.49,0.00,20.62,25.27,28.40,5.01,26.21,1044.95,2039.99,2862.37,2925.32,3145.08,350.15,360.30,14.53,0000 0000 0000 0000 000000
2014-12-02 02:37:53,0.09,1.49,0.00,20.63,25.27,28.38,4.92,26.24,1045.05,2039.99,2861.34,2924.69,3144.28,349.65,359.95,14.56,0000 0000 0000 0000 000000
2014-12-02 02:42:54,0.08,1.50,0.00,20.60,25.27,28.40,4.96,26.28,1044.96,2039.99,2860.14,2924.00,3143.49,350.01,360.29,14.59,0000 0000 0000 0000 000000
2014-12-02 02:47:56,0.11,1.50,0.00,20.59,25.27,28.46,5.01,26.39,1044.95,2039.99,2859.00,2923.23,3142.71,349.72,359.96,14.62,0000 0000 0000 0000 000000
2014-12-02 02:52:58,0.11,1.50,0.00,20.58,25.27,28.37,4.97,26.25,1045.00,2039.99,2857.77,2922.48,3141.88,350.16,360.54,14.65,0000 0000 0000 0000 000000
2014-12-02 02:57:59,0.08,1.50,0.00,20.59,25.26,28.38,4.91,26.23,1045.03,2040.00,2856.58,2921.82,3141.03,349.74,360.10,14.67,0000 0000 0000 0000 000000
2014-12-02 03:03:01,0.10,1.51,0.00,20.59,25.25,28.37,4.94,26.18,1044.99,2040.01,2855.47,2921.01,3140.12,350.12,360.45,14.70,0000 0000 0000 0000 000000
2014-12-02 03:08:02,0.11,1.51,0.00,20.59,25.25,28.37,5.03,26.36,1044.96,2040.01,2854.30,2920.20,3139.24,349.80,360.21,14.73,0000 0000 0000 0000 000000
2014-12-02 03:13:03,0.11,1.51,0.00,20.58,25.25,28.38,5.00,26.27,1044.94,2040.00,2853.05,2919.46,3138.39,350.67,361.03,14.76,0000 0000 0000 0000 000000
2014-12-02 03:18:05,0.10,1.52,0.00,20.60,25.25,28.38,4.92,26.30,1044.94,2040.00,2851.84,2918.72,3137.48,349.33,359.61,14.79,0000 0000 0000 0000 000000
2014-12-02 03:23:06,0.11,1.52,0.00,20.59,25.25,28.35,4.94,26.18,1044.94,2040.00,2850.55,2917.90,3136.54,350.04,360.39,14.82,0000 0000 0000 0000 000000
2014-12-02 03:28:07,0.10,1.52,0.00,20.58,25.24,28.34,4.98,26.18,1044.94,2040.00,2849.31,2917.02,3135.61,350.37,360.53,14.85,0000 0000 0000 0000 000000
2014-12-02 03:33:09,0.10,1.53,0.00,20.58,25.24,28.37,4.98,26.19,1044.88,2040.00,2848.05,2916.13,3134.91,350.02,360.31,14.88,0000 0000 0000 0000 000000
2014-12-02 03:38:10,0.13,1.53,0.00,20.56,25.23,28.34,5.00,26.41,1044.76,2040.00,2846.72,2915.40,3133.94,350.08,360.40,14.91,0000 0000 0000 0000 000000
2014-12-02 03:43:11,0.10,1.53,0.00,20.58,25.22,28.34,4.97,26.21,1044.68,2040.01,2845.50,2914.62,3133.04,350.17,360.36,14.94,0000 0000 0000 0000 000000
2014-12-02 03:48:12,0.10,1.54,0.00,20.57,25.22,28.34,4.96,26.26,1044.82,2040.01,2844.32,2913.77,3132.19,349.66,359.85,14.97,0000 0000 0000 0000 000000
2014-12-02 03:53:14,0.16,1.54,0.00,20.59,25.22,28.33,5.00,26.23,1044.79,2040.01,2842.55,2912.67,3131.10,350.24,360.49,15.00,0000 0000 0000 0000 000000
2014-12-02 03:58:15,0.12,1.54,0.00,20.58,25.22,28.37,4.96,26.24,1044.71,2040.02,2840.83,2911.82,3129.85,350.30,360.35,15.03,0000 0000 0000 0000 000000
2014-12-02 04:03:16,0.10,1.55,0.00,20.57,25.21,28.36,4.95,26.16,1044.61,2040.03,2839.63,2911.00,3128.99,349.64,360.08,15.06,0000 0000 0000 0000 000000
2014-12-02 04:08:18,0.12,1.55,0.00,20.56,25.20,28.38,4.96,26.28,1044.50,2040.07,2838.36,2910.09,3127.99,349.87,359.75,15.08,0000 0000 0000 0000 000000
2014-12-02 04:13:19,0.12,1.56,0.00,20.55,25.20,28.32,4.99,26.32,1044.51,2040.06,2836.99,2909.14,3126.97,349.91,360.11,15.11,0000 0000 0000 0000 000000
2014-12-02 04:18:20,0.13,1.56,0.00,20.56,25.20,28.34,4.89,26.28,1044.47,2040.07,2835.72,2908.36,3126.02,349.58,359.75,15.14,0000 0000 0000 0000 000000
2014-12-02 04:23:21,0.12,1.56,0.00,20.57,25.20,28.32,4.96,26.09,1044.50,2040.14,2834.53,2907.59,3125.10,350.05,359.87,15.17,0000 0000 0000 0000 000000
2014-12-02 04:28:22,0.13,1.57,0.00,20.58,25.19,28.29,4.97,26.30,1044.70,2040.17,2833.09,2906.68,3124.02,349.44,359.70,15.20,0000 0000 0000 0000 000000
2014-12-02 04:33:24,0.17,1.57,0.00,20.59,25.19,28.31,4.99,26.26,1044.89,2040.11,2831.29,2905.52,3122.66,350.25,360.54,15.23,0000 0000 0000 0000 000000
2014-12-02 04:38:25,0.13,1.57,0.00,20.58,25.17,28.32,4.91,26.37,1044.55,2040.09,2829.53,2904.46,3121.58,349.73,360.06,15.26,0000 0000 0000 0000 000000
2014-12-02 04:43:27,0.11,1.58,0.00,20.58,25.17,28.32,5.00,26.33,1044.53,2040.22,2828.25,2903.76,3120.71,350.14,360.38,15.29,0000 0000 0000 0000 000000
2014-12-02 04:48:28,0.09,1.58,0.00,20.58,25.17,28.31,4.90,26.20,1044.46,2040.35,2827.19,2902.92,3119.76,349.94,360.01,15.32,0000 0000 0000 0000 000000
2014-12-02 04:53:29,0.14,1.59,0.00,20.56,25.17,28.29,4.97,26.26,1044.45,2040.32,2825.75,2901.91,3118.73,350.19,360.32,15.35,0000 0000 0000 0000 000000
2014-12-02 04:58:31,0.14,1.59,0.00,20.57,25.17,28.29,4.97,26.27,1044.45,2040.22,2824.03,2900.90,3117.56,349.66,359.77,15.38,0000 0000 0000 0000 000000
2014-12-02 05:03:32,0.17,1.59,0.00,20.59,25.17,28.30,4.92,26.15,1044.45,2040.31,2822.26,2899.78,3116.38,349.66,359.88,15.41,0000 0000 0000 0000 000000
2014-12-02 05:08:34,0.24,1.60,0.00,20.60,25.17,28.31,4.94,26.25,1044.45,2040.57,2820.28,2898.58,3115.03,350.17,360.22,15.44,0000 0000 0000 0000 000000
2014-12-02 05:13:35,0.12,1.60,0.00,20.59,25.17,28.30,4.99,26.23,1044.45,2040.46,2818.48,2897.48,3113.68,350.04,359.83,15.47,0000 0000 0000 0000 000000
2014-12-02 05:18:36,0.12,1.61,0.00,20.60,25.17,28.32,4.94,26.09,1044.45,2040.47,2816.88,2896.47,3112.52,350.24,360.41,15.50,0000 0000 0000 0000 000000
2014-12-02 05:23:37,0.14,1.61,0.00,20.61,25.17,28.32,4.97,26.32,1044.45,2040.49,2815.64,2895.64,3111.58,349.79,359.92,15.52,0000 0000 0000 0000 000000
2014-12-02 05:28:38,0.11,1.62,0.00,20.59,25.17,28.32,4.95,26.32,1044.45,2040.64,2814.53,2894.83,3110.71,349.66,359.90,15.55,0000 0000 0000 0000 000000
2014-12-02 05:33:40,0.09,1.62,0.00,20.57,25.17,28.30,4.98,26.27,1044.42,2040.64,2813.36,2894.02,3109.78,350.11,360.12,15.58,0000 0000 0000 0000 000000
2014-12-02 05:38:41,0.11,1.62,0.00,20.58,25.17,28.30,4.99,26.38,1044.38,2040.68,2812.18,2893.22,3108.90,350.41,360.53,15.61,0000 0000 0000 0000 000000
2014-12-02 05:43:42,0.13,1.63,0.00,20.59,25.17,28.29,4.96,26.34,1044.26,2040.75,2810.99,2892.48,3108.02,350.08,359.95,15.64,0000 0000 0000 0000 000000
2014-12-02 05:48:44,0.09,1.63,0.00,20.59,25.17,28.29,4.93,26.23,1044.12,2040.70,2809.86,2891.76,3107.12,349.67,359.64,15.67,0000 0000 0000 0000 000000
2014-12-02 05:53:45,0.10,1.63,0.00,20.60,25.17,28.33,4.94,26.38,1044.00,2040.74,2808.70,2890.99,3106.28,349.90,359.86,15.70,0000 0000 0000 0000 000000
2014-12-02 05:58:46,0.14,1.64,0.00,20.59,25.17,28.31,5.00,26.32,1043.99,2040.83,2807.70,2890.15,3105.51,350.19,360.17,15.73,0000 0000 0000 0000 000000
2014-12-02 06:03:47,0.11,1.64,0.00,20.60,25.17,28.34,5.00,26.27,1043.97,2040.89,2806.55,2889.50,3104.70,350.06,360.01,15.76,0000 0000 0000 0000 000000
2014-12-02 06:08:48,0.07,1.64,0.00,20.62,25.17,28.31,4.90,26.32,1043.96,2040.80,2805.39,2888.82,3103.84,350.12,359.88,15.79,0000 0000 0000 0000 000000
2014-12-02 06:13:49,0.07,1.65,0.00,20.63,25.17,28.32,4.94,26.32,1043.96,2040.74,2804.30,2888.02,3102.91,350.01,360.00,15.82,0000 0000 0000 0000 000000
2014-12-02 06:18:50,0.13,1.65,0.00,20.62,25.17,28.30,4.96,26.22,1043.96,2040.75,2803.10,2887.17,3102.04,349.90,359.72,15.85,0000 0000 0000 0000 000000
2014-12-02 06:23:51,0.12,1.65,0.00,20.62,25.17,28.33,4.95,26.22,1043.96,2040.82,2802.02,2886.46,3101.14,349.91,359.89,15.88,0000 0000 0000 0000 000000
2014-12-02 06:28:52,0.09,1.65,0.00,20.62,25.17,28.35,4.97,26.41,1043.96,2040.91,2800.95,2885.80,3100.45,349.95,359.61,15.90,0000 0000 0000 0000 000000
2014-12-02 06:33:53,0.08,1.66,0.00,20.61,25.17,28.32,4.97,26.23,1043.93,2040.81,2799.84,2885.01,3099.58,350.11,360.01,15.93,0000 0000 0000 0000 000000
2014-12-02 06:38:55,0.10,1.66,0.00,20.60,25.17,28.37,4.96,26.47,1043.70,2040.72,2798.61,2884.24,3098.71,349.81,359.99,15.96,0000 0000 0000 0000 000000
2014-12-02 06:43:56,0.10,1.66,0.00,20.62,25.17,28.33,4.97,26.24,1043.50,2040.69,2797.57,2883.56,3097.88,350.10,359.67,15.99,0000 0000 0000 0000 000000
2014-12-02 06:48:57,0.09,1.67,0.00,20.63,25.18,28.35,4.94,26.31,1043.48,2040.77,2796.57,2882.94,3097.05,350.07,359.44,16.02,0000 0000 0000 0000 000000
2014-12-02 06:53:58,0.09,1.67,0.00,20.63,25.18,28.37,4.92,26.27,1043.48,2040.75,2795.42,2882.10,3096.28,349.54,359.27,16.05,0000 0000 0000 0000 000000
2014-12-02 06:58:59,0.13,1.67,0.00,20.63,25.19,28.37,4.95,26.28,1043.48,2040.87,2794.30,2881.44,3095.65,350.38,360.09,16.08,0000 0000 0000 0000 000000
2014-12-02 07:04:01,0.06,1.68,0.00,20.64,25.19,28.34,4.93,26.21,1043.48,2040.93,2793.26,2880.90,3094.92,349.37,358.83,16.11,0000 0000 0000 0000 000000
2014-12-02 07:09:02,0.11,1.68,0.00,20.63,25.19,28.36,4.93,26.33,1043.47,2040.97,2792.28,2880.08,3094.07,349.28,359.07,16.14,0000 0000 0000 0000 000000
2014-12-02 07:14:03,0.27,1.68,0.00,20.65,25.20,28.33,5.02,26.32,1043.47,2040.94,2789.90,2878.47,3092.27,350.39,360.20,16.17,0000 0000 0000 0000 000000
2014-12-02 07:19:04,1.52,1.72,0.00,20.64,25.20,28.36,5.02,26.29,1043.47,2040.92,2773.88,2867.98,3081.14,350.38,360.05,16.20,0000 0000 0000 0000 000000
2014-12-02 07:24:05,0.12,1.74,0.00,20.64,25.20,28.35,4.97,26.13,1043.46,2040.91,2771.31,2866.12,3079.31,349.87,359.62,16.23,0000 0000 0000 0000 000000
2014-12-02 07:29:07,0.11,1.74,0.00,20.66,25.20,28.39,4.96,26.36,1043.45,2040.88,2770.19,2865.42,3078.54,349.78,359.58,16.26,0000 0000 0000 0000 000000
2014-12-02 07:34:08,0.09,1.74,0.00,20.67,25.20,28.35,4.98,26.35,1043.41,2040.90,2769.08,2864.74,3077.76,350.08,359.74,16.29,0000 0000 0000 0000 000000
2014-12-02 07:39:09,0.06,1.74,0.00,20.66,25.20,28.38,5.00,26.52,1043.29,2040.78,2767.91,2863.96,3076.85,350.56,360.19,16.31,0000 0000 0000 0000 000000
2014-12-02 07:44:10,0.11,1.75,0.00,20.69,25.20,28.35,5.00,26.25,1043.15,2040.77,2766.92,2863.19,3076.04,350.09,359.57,16.34,0000 0000 0000 0000 000000
2014-12-02 07:49:12,0.08,1.75,0.00,20.71,25.20,28.37,4.94,26.41,1043.28,2040.65,2765.86,2862.49,3075.21,349.70,359.22,16.37,0000 0000 0000 0000 000000
2014-12-02 07:54:13,0.08,1.75,0.00,20.69,25.22,28.36,4.89,26.18,1043.33,2040.58,2764.82,2861.86,3074.45,349.85,359.39,16.40,0000 0000 0000 0000 000000
2014-12-02 07:59:15,0.09,1.75,0.00,20.71,25.22,28.37,4.95,26.35,1043.28,2040.62,2763.67,2861.02,3073.63,349.35,359.08,16.43,0000 0000 0000 0000 000000
2014-12-02 08:04:16,0.12,1.76,0.00,20.70,25.22,28.37,4.91,26.21,1043.24,2040.49,2762.42,2860.12,3072.74,350.09,359.70,16.46,0000 0000 0000 0000 000000
2014-12-02 08:09:17,0.06,1.76,0.00,20.72,25.22,28.38,4.92,26.37,1043.14,2040.34,2761.31,2859.41,3071.79,349.66,358.89,16.49,0000 0000 0000 0000 000000
2014-12-02 08:14:19,0.09,1.76,0.00,20.74,25.22,28.40,5.00,26.38,1043.10,2040.25,2760.29,2858.64,3071.02,350.15,359.65,16.52,0000 0000 0000 0000 000000
2014-12-02 08:19:20,0.08,1.77,0.00,20.74,25.22,28.41,4.97,26.24,1043.19,2040.28,2759.26,2857.98,3070.25,350.35,359.95,16.55,0000 0000 0000 0000 000000
2014-12-02 08:24:21,0.13,1.77,0.00,20.75,25.24,28.42,4.93,26.23,1043.09,2040.28,2758.20,2857.17,3069.56,349.48,358.92,16.58,0000 0000 0000 0000 000000
2014-12-02 08:29:23,0.06,1.77,0.00,20.75,25.25,28.39,4.96,26.31,1043.00,2040.23,2757.26,2856.66,3068.85,349.96,359.28,16.61,0000 0000 0000 0000 000000
2014-12-02 08:34:24,0.06,1.77,0.00,20.76,25.25,28.41,4.93,26.23,1043.01,2040.18,2756.29,2855.99,3068.03,350.13,359.50,16.64,0000 0000 0000 0000 000000
2014-12-02 08:39:25,0.10,1.78,0.00,20.77,25.25,28.44,4.98,26.43,1043.00,2040.10,2755.28,2855.16,3067.19,349.87,359.41,16.67,0000 0000 0000 0000 000000
2014-12-02 08:44:26,0.12,1.78,0.00,20.77,25.25,28.41,4.97,26.36,1042.99,2040.22,2754.40,2854.64,3066.57,350.02,359.59,16.70,0000 0000 0000 0000 000000
2014-12-02 08:49:28,0.04,1.78,0.00,20.75,25.27,28.41,4.98,26.33,1042.97,2040.11,2753.34,2853.96,3065.84,349.53,359.17,16.73,0000 0000 0000 0000 000000
2014-12-02 08:54:29,0.10,1.78,0.00,20.75,25.27,28.43,4.95,26.30,1042.92,2040.08,2752.37,2853.14,3065.02,350.42,359.79,16.75,0000 0000 0000 0000 000000
2014-12-02 08:59:30,0.12,1.79,0.00,20.78,25.27,28.43,4.96,26.32,1042.79,2040.10,2751.38,2852.44,3064.19,349.77,358.97,16.78,0000 0000 0000 0000 000000
2014-12-02 09:04:31,0.05,1.79,0.00,20.78,25.27,28.45,4.98,26.24,1042.67,2040.06,2750.62,2851.94,3063.53,350.13,359.34,16.81,0000 0000 0000 0000 000000
2014-12-02 09:09:33,0.11,1.79,0.00,20.80,25.29,28.46,4.98,26.32,1042.57,2040.08,2749.55,2851.11,3062.77,350.10,359.21,16.84,0000 0000 0000 0000 000000
2014-12-02 09:14:34,0.08,1.79,0.00,20.79,25.30,28.46,4.90,26.29,1042.53,2040.07,2748.65,2850.47,3062.02,349.20,358.41,16.87,0000 0000 0000 0000 000000
2014-12-02 09:19:35,0.09,1.80,0.00,20.79,25.30,28.45,4.94,26.28,1042.52,2040.08,2747.69,2849.92,3061.21,350.15,359.38,16.90,0000 0000 0000 0000 000000
2014-12-02 09:24:36,0.09,1.80,0.00,20.82,25.30,28.45,4.98,26.21,1042.51,2040.05,2746.75,2849.08,3060.49,350.19,359.33,16.93,0000 0000 0000 0000 000000
2014-12-02 09:29:37,0.08,1.80,0.00,20.83,25.31,28.50,4.96,26.22,1042.50,2040.06,2745.81,2848.57,3059.82,349.38,358.75,16.96,0000 0000 0000 0000 000000
2014-12-02 09:34:39,0.07,1.81,0.00,20.84,25.32,28.49,4.98,26.28,1042.50,2040.06,2744.83,2847.91,3059.02,350.58,359.75,16.99,0000 0000 0000 0000 000000
2014-12-02 09:39:40,0.11,1.81,0.00,20.87,25.32,28.48,4.99,26.39,1042.50,2040.02,2743.80,2847.07,3058.14,350.34,359.53,17.02,0000 0000 0000 0000 000000
2014-12-02 09:44:41,0.10,1.81,0.00,20.85,25.32,28.48,4.92,26.20,1042.39,2040.02,2742.92,2846.32,3057.41,349.69,358.92,17.05,0000 0000 0000 0000 000000
2014-12-02 09:49:42,0.04,1.81,0.00,20.87,25.34,28.50,4.91,26.27,1042.07,2040.02,2742.06,2845.96,3056.91,350.42,359.22,17.08,0000 0000 0000 0000 000000
2014-12-02 09:54:43,0.11,1.82,0.00,20.89,25.35,28.49,4.93,26.27,1042.03,2040.01,2741.17,2845.14,3056.09,349.44,358.34,17.11,0000 0000 0000 0000 000000
2014-12-02 09:59:45,0.10,1.82,0.00,20.90,25.35,28.51,4.92,26.32,1042.02,2040.02,2740.35,2844.60,3055.43,349.80,358.96,17.14,0000 0000 0000 0000 000000
2014-12-02 10:04:46,0.07,1.82,0.00,20.90,25.35,28.50,4.92,26.32,1042.01,2040.00,2739.46,2844.00,3054.70,349.57,358.51,17.16,0000 0000 0000 0000 000000
2014-12-02 10:09:47,0.09,1.82,0.00,20.90,25.37,28.51,4.95,26.26,1042.01,2040.00,2738.53,2843.27,3053.96,350.16,359.35,17.19,0000 0000 0000 0000 000000
2014-12-02 10:14:49,0.07,1.83,0.00,20.90,25.37,28.54,4.94,26.20,1042.01,2040.00,2737.72,2842.78,3053.12,350.05,358.90,17.22,0000 0000 0000 0000 000000
2014-12-02 10:19:50,0.08,1.83,0.00,20.90,25.37,28.53,4.97,26.23,1041.95,2040.00,2736.86,2842.04,3052.58,349.18,358.16,17.25,0000 0000 0000 0000 000000
2014-12-02 10:24:51,0.08,1.83,0.00,20.93,25.39,28.53,4.98,26.33,1041.76,2040.00,2736.00,2841.42,3051.99,350.24,359.02,17.28,0000 0000 0000 0000 000000
2014-12-02 10:29:52,0.07,1.83,0.00,20.93,25.40,28.55,5.00,26.11,1041.55,2040.00,2735.09,2840.94,3051.15,350.36,359.07,17.31,0000 0000 0000 0000 000000
2014-12-02 10:34:54,0.10,1.84,0.00,20.93,25.40,28.55,4.96,26.22,1041.53,2040.00,2734.20,2840.12,3050.56,349.94,358.64,17.34,0000 0000 0000 0000 000000
2014-12-02 10:39:55,0.10,1.84,0.00,20.96,25.41,28.56,4.92,26.35,1041.53,2040.00,2733.24,2839.54,3049.79,349.79,358.33,17.37,0000 0000 0000 0000 000000
2014-12-02 10:44:56,0.05,1.84,0.00,20.96,25.42,28.56,4.91,26.18,1041.52,2040.00,2732.61,2838.99,3049.04,350.48,359.17,17.40,0000 0000 0000 0000 000000
2014-12-02 10:49:57,0.10,1.84,0.00,20.99,25.42,28.57,4.95,26.18,1041.52,2039.99,2731.77,2838.22,3048.39,350.33,359.08,17.43,0000 0000 0000 0000 000000
2014-12-02 10:54:59,0.03,1.85,0.00,21.01,25.43,28.59,4.96,26.18,1041.52,2039.99,2731.00,2837.94,3047.96,350.22,358.84,17.46,0000 0000 0000 0000 000000
2014-12-02 11:00:00,0.11,1.85,0.00,21.00,25.45,28.57,4.90,26.26,1041.51,2039.99,2730.14,2837.13,3047.18,349.71,358.24,17.49,0000 0000 0000 0000 000000
2014-12-02 11:05:01,0.04,1.85,0.00,21.02,25.45,28.58,4.90,26.27,1041.50,2039.99,2729.58,2836.90,3046.82,349.50,358.13,17.52,0000 0000 0000 0000 000000
2014-12-02 11:10:02,0.08,1.85,0.00,21.02,25.46,28.60,4.91,26.23,1041.40,2039.99,2728.89,2836.14,3046.05,349.73,358.34,17.54,0000 0000 0000 0000 000000
2014-12-02 11:15:03,0.05,1.85,0.00,21.03,25.47,28.60,4.93,26.21,1041.43,2039.99,2728.08,2835.93,3045.69,350.73,359.26,17.57,0000 0000 0000 0000 000000
2014-12-02 11:20:04,0.08,1.86,0.00,21.03,25.47,28.60,4.90,26.23,1041.35,2039.98,2727.63,2835.15,3045.01,349.41,357.85,17.60,0000 0000 0000 0000 000000
2014-12-02 11:25:05,0.06,1.86,0.00,21.06,25.49,28.63,4.88,26.18,1041.35,2039.97,2726.92,2834.85,3044.30,349.81,358.15,17.63,0000 0000 0000 0000 000000
2014-12-02 11:30:07,0.05,1.86,0.00,21.04,25.50,28.61,4.95,26.16,1041.32,2039.74,2726.05,2834.05,3043.60,349.69,358.20,17.66,0000 0000 0000 0000 000000
2014-12-02 11:35:08,0.07,1.86,0.00,21.08,25.50,28.64,4.84,26.26,1041.17,2039.64,2725.23,2833.51,3042.97,349.65,357.81,17.69,0000 0000 0000 0000 000000
2014-12-02 11:40:09,0.03,1.86,0.00,21.08,25.52,28.65,4.95,26.43,1041.07,2039.45,2724.33,2833.00,3042.24,349.81,358.06,17.72,0000 0000 0000 0000 000000
2014-12-02 11:45:10,0.10,1.86,0.00,21.10,25.52,28.66,4.90,26.18,1041.03,2039.47,2723.64,2832.39,3041.91,349.79,358.05,17.75,0000 0000 0000 0000 000000
2014-12-02 11:50:12,0.02,1.87,0.00,21.11,25.52,28.67,4.96,26.15,1041.03,2039.37,2722.97,2831.99,3041.11,350.38,358.79,17.78,0000 0000 0000 0000 000000
2014-12-02 11:55:13,0.08,1.87,0.00,21.10,25.55,28.70,4.97,26.19,1041.03,2039.21,2722.13,2831.29,3040.68,350.15,358.60,17.81,0000 0000 0000 0000 000000
2014-12-02 12:00:14,0.02,1.87,0.00,21.11,25.55,28.68,4.97,26.13,1041.03,2039.11,2721.58,2830.98,3040.02,350.51,358.61,17.84,0000 0000 0000 0000 000000
2014-12-02 12:05:15,0.07,1.87,0.00,21.14,25.56,28.71,4.92,26.32,1041.03,2039.11,2720.98,2830.33,3039.76,349.65,357.92,17.87,0000 0000 0000 0000 000000
2014-12-02 12:10:17,0.04,1.87,0.00,21.14,25.57,28.73,4.87,26.25,1041.00,2039.06,2720.19,2829.99,3039.01,349.66,357.92,17.90,0000 0000 0000 0000 000000
2014-12-02 12:15:18,0.10,1.88,0.00,21.15,25.57,28.70,4.97,26.32,1040.91,2039.03,2719.67,2829.29,3038.22,349.91,358.13,17.93,0000 0000 0000 0000 000000
2014-12-02 12:20:19,0.03,1.88,0.00,21.16,25.58,28.72,4.93,26.26,1040.77,2039.03,2718.92,2828.97,3037.83,349.94,357.96,17.95,0000 0000 0000 0000 000000
2014-12-02 12:25:21,0.09,1.88,0.00,21.18,25.60,28.73,4.91,26.22,1040.60,2039.02,2718.02,2828.22,3037.08,349.78,357.87,17.98,0000 0000 0000 0000 000000
2014-12-02 12:30:22,0.09,1.88,0.00,21.19,25.60,28.74,4.94,26.11,1040.56,2039.00,2717.09,2827.71,3036.31,350.28,358.22,18.01,0000 0000 0000 0000 000000
2014-12-02 12:35:23,0.06,1.88,0.00,21.18,25.61,28.77,4.91,26.08,1040.54,2039.00,2716.44,2827.02,3035.83,350.30,358.28,18.04,0000 0000 0000 0000 000000
2014-12-02 12:40:24,0.10,1.89,0.00,21.19,25.62,28.77,4.96,26.33,1040.54,2039.00,2715.56,2826.40,3035.06,350.03,358.05,18.07,0000 0000 0000 0000 000000
2014-12-02 12:45:26,0.03,1.89,0.00,21.21,25.62,28.78,4.95,26.27,1040.54,2038.99,2715.00,2826.00,3034.76,350.08,357.85,18.10,0000 0000 0000 0000 000000
2014-12-02 12:50:26,0.09,1.89,0.00,21.22,25.63,28.79,4.97,26.22,1040.54,2038.99,2714.28,2825.51,3034.01,350.21,358.07,18.13,0000 0000 0000 0000 000000
2014-12-02 12:55:28,0.07,1.89,0.00,21.22,25.65,28.78,5.01,26.22,1040.51,2038.99,2713.52,2824.99,3033.29,350.57,358.72,18.16,0000 0000 0000 0000 000000
2014-12-02 13:00:29,0.08,1.90,0.00,21.23,25.65,28.80,4.95,26.32,1040.21,2038.99,2712.67,2824.26,3032.85,350.04,357.96,18.19,0000 0000 0000 0000 000000